Tracking 19562 objects as of 24-Mar-2019
HD Live streaming from Space Station
objects crossing your sky now

COSMOS 2429

Track COSMOS 2429 now!
10-day predictions
COSMOS 2429 is classified as:


NORAD ID: 32052
Int'l Code: 2007-038A
Perigee: 960.0 km
Apogee: 1,018.3 km
Inclination: 83.0 °
Period: 104.7 minutes
Semi major axis: 7360 km
RCS: 1.582 m2 (large)
Launch date: September 11, 2007
Source: Commonwealth of Independent States (former USSR) (CIS)
Launch site: PLESETSK MISSILE AND SPACE COMPLEX (PKMTR)

The spacecraft is called Kosmos 2429 under the Russian Defense Ministry's naming system for military satellites
aabbcc
Your satellite tracking list
Your tracking list is empty




NASA's NSSDC Master Catalog

Two Line Element Set (TLE):
1 32052U 07038A   19082.84982794  .00000045  00000-0  30964-4 0  9996
2 32052  82.9844 352.8427 0039635  54.1119 306.3706 13.74912624578630
Source of the keplerian elements: AFSPC